Regional Weather Roundup
Issued by NWS

Home | Current Version | Previous Version | Graphics & Text | Print | Product List | Glossary On
Versions: 1 2 3 4 5 6 7 8 9 10 11 12 13 14 15 16 17 18 19 20 21 22 23 24 25 26 27 28 29 30 31 32 33 34 35 36 37 38 39 40 41 42 43 44 45 46 47 48 49 50
000
ASUS45 KBOU 280207
RWRCO

WEATHER ROUNDUP FOR COLORADO
NATIONAL WEATHER SERVICE DENVER/BOULDER CO
800 PM MDT MON MAR 27 2017

NOTE: "FAIR" INDICATES FEW OR NO CLOUDS BELOW 12000 FEET WITH NO
SIGNIFICANT WEATHER AND/OR OBSTRUCTIONS TO VISIBILITY.

COZ001>005-013-030-031-280300-
...NORTHWEST COLORADO...

CITY           SKY/WX    TMP DP  RH WIND       PRES   REMARKS
CRAIG          FAIR      40  33  76 E7        29.83F
HAYDEN         FAIR      41  30  65 NE3       29.84F
MEEKER         FAIR      42  33  70 SW7       29.80S
MOUNT WERNER   NOT AVBL
STEAMBOAT SPGS FAIR      38  34  87 NW3       29.85R
WALDEN         NOT AVBL
$$

COZ006>008-011-280300-
...WEST CENTRAL VALLEYS...

CITY           SKY/WX    TMP DP  RH WIND       PRES   REMARKS
GRAND JUNCTION FAIR      55  32  41 SE13      29.72R
MONTROSE       CLOUDY    50  33  52 CALM      29.82R
EAGLE          CLOUDY    48  32  53 W16       29.85R
RIFLE          CLOUDY    52  33  48 E12       29.78R
DELTA          LGT RAIN  51  40  67 E14       29.81R
NUCLA          LGT RAIN  48  34  57 SE7       29.85R
$$

COZ017>023-064>068-280300-
...SOUTHWEST COLORADO...

CITY           SKY/WX    TMP DP  RH WIND       PRES   REMARKS
DURANGO        CLOUDY    45  31  58 SE15      29.86S
CORTEZ         CLOUDY    44  39  82 E8        29.84R
PAGOSA SPRINGS CLOUDY    40  37  89 E6        29.93F
TELLURIDE      LGT SNOW  35  32  91 CALM      29.91R
WOLF CREEK PAS SNOW      23  23 100 S15G23    30.04S VSB 1/4 WCI  10
$$

COZ009-010-012-014-032>034-037-058>063-280300-
...CENTRAL COLORADO...

CITY           SKY/WX    TMP DP  RH WIND       PRES   REMARKS
ASPEN          FAIR      42  25  50 W8        29.83R
BUENA VISTA    MOCLDY    44  30  58 E14       29.85S
COPPER MTN     CLOUDY    34  23  64 CALM      29.97S
BERTHOUD PASS  SNOW      23  12  63 S8        29.98S VSB<1/4 WCI  14
COTTONWOOD PAS MOCLDY    41  28  60 SE21      29.89F
GUNNISON       FAIR      43  26  51 NW5       29.83R
KREMMLING      FAIR      43  36  75 CALM      29.86S
LEADVILLE      FAIR      36  16  44 SE7       29.88R
MONARCH PASS   MOCLDY    28  27  93 E9        30.08S WCI  20
SALIDA         CLOUDY    49  32  51 SE6G16    29.90R
SUNLIGHT       LGT SNOW  28  27  93 SW13G20   29.94F WCI  18
WILKERSON PASS CLOUDY    32  28  86 S8G18     29.99S WCI  25
$$

COZ069>075-280300-
...SAN LUIS VALLEY/SANGRE DE CRISTO MOUNTAINS...

CITY           SKY/WX    TMP DP  RH WIND       PRES   REMARKS
ALAMOSA        MOCLDY    46  30  53 SW9       29.89R
LA VETA PASS   NOT AVBL
SAGUACHE       MOCLDY    46  23  39 SW9       29.86R
$$

COZ035-036-038>040-280300-
...NORTHERN COLORADO FRONT RANGE...

CITY           SKY/WX    TMP DP  RH WIND       PRES   REMARKS
DENVER INTL AP MOCLDY    52  38  58 VRB3      29.80S
DMNS CITY PARK   N/A     51  40  64 NW3G13    29.80S
AURORA         MOCLDY    49  44  81 CALM      29.82R
FRONT RANGE AP CLOUDY    55  37  50 E12       29.81S
ERIE MUNI ARPT LGT RAIN  50  43  76 E6        29.81R
BOULDER MUN AP MOCLDY    54  36  50 SE3       29.80R
CENTENNIAL     MOCLDY    50  41  71 W7        29.82R
BROOMFIELD     LGT RAIN  50  37  62 CALM      29.83R
FORT COLLINS   LGT RAIN  54  37  54 S12       29.82R
LONGMONT       MOCLDY    55  35  47 CALM      29.82R
$$

COZ041-046-047-076>085-087-088-280300-
...PIKES PEAK/PALMER DIVIDE AND SOUTHERN FOOTHILLS...

CITY           SKY/WX    TMP DP  RH WIND       PRES   REMARKS
COLO. SPRINGS  CLOUDY    51  37  58 S8        29.85R
A. F. ACADEMY  NOT AVBL
SCHRIEVER AFB  MOCLDY    52  34  50 S22G35    29.86
ELLICOTT       NOT AVBL
FALCON         LGT RAIN  47  36  64 SE9       29.88R
FORT CARSON    MOCLDY    52  37  56 VRB3      29.84R
LIMON          MOCLDY    48  37  65 E10       29.84R
MONUMENT HILL  FAIR      43  32  65 SE8       29.87R
TRINIDAD       CLOUDY    59  31  34 S31G40    29.82R SQUALL
$$

COZ042>045-048>051-090-091-280300-
...NORTHEAST COLORADO...

CITY           SKY/WX    TMP DP  RH WIND       PRES   REMARKS
GREELEY ARPT   LGT RAIN  52  43  71 S10       29.82R
AKRON          FAIR      51  35  54 SE13      29.82S
BURLINGTON     FAIR      51  40  65 SE12      29.86R
WRAY           NOT AVBL
STERLING       NOT AVBL
HOLYOKE        FAIR      55  36  47 SE12      29.85R
FORT MORGAN    FAIR      55  33  43 SE10      29.81S
$$

COZ086-089-092>099-280300-
...SOUTHEAST COLORADO...

CITY           SKY/WX    TMP DP  RH WIND       PRES   REMARKS
PUEBLO         CLOUDY    59  38  45 SW6       29.80R
LA JUNTA       CLOUDY    63  32  31 SE14      29.77R
LAMAR          FAIR      58  34  40 SE14      29.78R
SPRINGFIELD      N/A     53  33  46 SE12      29.83R
$$



USA.gov is the U.S. government's official web portal to all federal, state and local government web resources and services.